This demonstration page uses our WeatherBlox Daily Observations layout. Learn more.

Left ArrowRight Arrow

40.92501, -98.34201

Hourly Observations for September 13, 2022

Temp ( °F °C ) Dew Point ( °F °C ) Humidity (%) Winds ( mph kmh ) Pressure ( in mb ) Visibility ( mi km ) Precip ( " mm )
12:53 am 00:53 Clear 63 17.2 54 12.2 72 72 SSE 7 11 29.88 1012 10 16 0.00 0.00
1:53 am 01:53 Clear 61 16.1 52 11.1 72 72 SSE 6 9 29.88 1012 10 16 0.00 0.00
2:53 am 02:53 Clear 61 16.1 51 10.6 70 70 SSE 6 9 29.87 1011 10 16 0.00 0.00
3:53 am 03:53 Clear 59 15 50 10 72 72 S 6 9 29.86 1011 10 16 0.00 0.00
4:53 am 04:53 Clear 60 15.6 50 10 69 69 S 6 9 29.85 1011 10 16 0.00 0.00
5:53 am 05:53 Clear 59 15 50 10 72 72 Calm 29.86 1011 10 16 0.00 0.00
6:53 am 06:53 Clear 56 13.3 50 10 80 80 Calm 29.86 1011 10 16 0.00 0.00
7:53 am 07:53 Sunny 56 13.3 52 11.1 87 87 Calm 29.89 1012 10 16 0.00 0.00
8:53 am 08:53 Sunny 61 16.1 52 11.1 72 72 S 5 7 29.88 1012 10 16 0.00 0.00
9:53 am 09:53 Sunny 69 20.6 54 12.2 59 59 S 5 7 29.88 1012 10 16 0.00 0.00
10:53 am 10:53 Sunny 75 23.9 54 12.2 48 48 S 5 7 29.88 1012 10 16 0.00 0.00
11:53 am 11:53 Sunny 78 25.6 57 13.9 48 48 SE 5 7 29.88 1012 10 16 0.00 0.00
12:53 pm 12:53 Sunny 84 28.9 59 15 43 43 SSE 12 19 29.86 1011 10 16 0.00 0.00
1:53 pm 13:53 Sunny 87 30.6 60 15.6 40 40 SSE 14 22 29.85 1011 10 16 0.00 0.00
2:53 pm 14:53 Sunny 90 32.2 60 15.6 37 37 SSE 15 24 29.83 1010 10 16 0.00 0.00
3:53 pm 15:53 Sunny 92 33.3 55 12.8 29 29 S 17 28 29.82 1010 10 16 0.00 0.00
4:53 pm 16:53 Sunny 91 32.8 53 11.7 28 28 S 15 24 29.82 1010 10 16 0.00 0.00
5:53 pm 17:53 Sunny 89 31.7 55 12.8 32 32 S 12 19 29.82 1010 10 16 0.00 0.00
6:53 pm 18:53 Sunny 84 28.9 57 13.9 40 40 S 6 9 29.83 1010 10 16 0.00 0.00
7:53 pm 19:53 Clear 77 25 62 16.7 60 60 SSE 8 13 29.84 1010 10 16 0.00 0.00
8:53 pm 20:53 Clear 77 25 59 15 54 54 S 10 17 29.85 1011 10 16 0.00 0.00
9:53 pm 21:53 Clear 75 23.9 56 13.3 51 51 S 10 17 29.85 1011 10 16 0.00 0.00
10:53 pm 22:53 Clear 73 22.8 56 13.3 55 55 S 13 20 29.85 1011 10 16 0.00 0.00
11:53 pm 23:53 Clear 71 21.7 55 12.8 57 57 S 10 17 29.85 1011 10 16 0.00 0.00

Powered by AerisWeather